This is the latest recevied weather packets stored in our database for station/object KD9JB-1. If no packets are shown the sender has not sent any weather packets the latest 10 day(s).
| Time | Temp. | Humidity | Pressure | Rain* | Wind** | Luminosity | Snow |
|---|---|---|---|---|---|---|---|
| 1777905998 | 19.44° C | 62% | 1009.4 hPa | 0 mm | - | - | - |
| 1777905698 | 18.89° C | 61% | 1009.5 hPa | 0 mm | - | - | - |
| 1777905398 | 18.89° C | 60% | 1009.5 hPa | 0 mm | - | - | - |
| 1777905098 | 19.44° C | 60% | 1009.7 hPa | 0 mm | - | - | - |
| 1777904798 | 19.44° C | 63% | 1009.6 hPa | 0 mm | - | - | - |
| 1777904498 | 18.33° C | 65% | 1009.7 hPa | 0 mm | - | - | - |
| 1777904198 | 18.33° C | 63% | 1009.7 hPa | 0 mm | - | - | - |
| 1777903898 | 18.33° C | 64% | 1009.6 hPa | 0 mm | - | - | - |
| 1777903598 | 18.33° C | 65% | 1009.7 hPa | 0 mm | - | - | - |
| 1777903298 | 17.78° C | 65% | 1009.6 hPa | 0 mm | - | - | - |
| 1777902998 | 17.78° C | 65% | 1009.7 hPa | 0 mm | - | - | - |
| 1777902698 | 17.78° C | 66% | 1009.8 hPa | 0 mm | - | - | - |
| 1777902398 | 17.78° C | 67% | 1009.7 hPa | 0 mm | - | - | - |
| 1777902098 | 17.78° C | 67% | 1009.8 hPa | 0 mm | - | - | - |
| 1777901798 | 17.22° C | 69% | 1009.8 hPa | 0 mm | - | - | - |
| 1777901498 | 16.67° C | 70% | 1009.9 hPa | 0 mm | - | - | - |
| 1777901198 | 16.67° C | 71% | 1010 hPa | 0 mm | - | - | - |
| 1777900898 | 16.67° C | 70% | 1010 hPa | 0 mm | - | - | - |
| 1777900598 | 16.11° C | 73% | 1010.2 hPa | 0 mm | - | - | - |
| 1777900298 | 15.56° C | 75% | 1010.1 hPa | 0 mm | - | - | - |
| 1777899998 | 15.56° C | 75% | 1010.1 hPa | 0 mm | - | - | - |
| 1777899698 | 15° C | 78% | 1010.2 hPa | 0 mm | - | - | - |
| 1777899398 | 15° C | 79% | 1010.2 hPa | 0 mm | - | - | - |
| 1777899098 | 14.44° C | 79% | 1010.4 hPa | 0 mm | - | - | - |
| 1777898798 | 14.44° C | 78% | 1010.5 hPa | 0 mm | - | - | - |
* Rain latest hour (hover to see other rain measurements)
** Current wind speed in m/s (hover to see current wind gust speed)